Location: ???????
(55.4362°N, 38.1183°E)
Time: 03:58:06
(UTC+00:00)

KKS-1 - Visible Passes

Search period start: 06 December 2021 00:00
Search period end: 16 December 2021 00:00
Orbit: 637 x 648 km, 98.2° (Epoch: 05 December)

Date Brightness Start Highest point End Pass type
(mag) Time Alt. Az. Time Alt. Az. Time Alt. Az.
06 Dec ? 03:57:13 10° E 03:59:32 14° NE 04:01:52 10° NNE visible
07 Dec ? 04:20:16 10° E 04:23:30 20° NE 04:26:44 10° N visible
08 Dec ? 04:43:42 10° ESE 04:47:32 28° ENE 04:51:22 10° N visible
10 Dec ? 03:57:45 10° E 04:00:03 14° NE 04:02:23 10° NNE visible
11 Dec ? 04:20:48 10° E 04:24:02 20° NE 04:27:16 10° N visible
12 Dec ? 04:44:14 10° ESE 04:48:04 28° ENE 04:51:54 10° N visible
14 Dec ? 03:58:17 10° E 04:00:35 14° NE 04:02:54 10° NNE visible
15 Dec ? 04:21:20 10° E 04:24:33 20° NE 04:27:47 10° N visible
